Location: Albany
(35.0000°S, 118.0000°E)
Time: 16:59:28
(UTC-04:00)

Cosmos 1933 - Visible Passes

Search period start: 18 April 2014 00:00
Search period end: 28 April 2014 00:00
Orbit: 558 x 573 km, 82.5° (Epoch: 17 April)

Date Brightness Start Highest point End Pass type
(mag) Time Alt. Az. Time Alt. Az. Time Alt. Az.
18 Apr 3.4 07:10:07 10° S 07:14:17 80° W 07:18:24 10° N visible
19 Apr 3.9 07:10:46 10° SSW 07:14:53 61° W 07:18:57 10° N visible
20 Apr 4.4 07:11:28 10° SSW 07:15:28 47° W 07:19:26 10° NNW visible
21 Apr 5.0 07:12:12 10° SSW 07:16:02 37° W 07:19:51 10° NNW visible
22 Apr 5.5 07:12:59 10° SSW 07:16:35 29° W 07:20:11 10° NNW visible
23 Apr 5.9 07:13:49 10° SW 07:17:08 23° W 07:20:25 10° NW visible
23 Apr 6.9 17:58:27 10° ENE 17:59:58 12° E 18:01:29 10° ESE visible
24 Apr 6.3 07:14:45 10° SW 07:17:39 19° W 07:20:32 10° NW visible
24 Apr 6.7 17:58:06 10° ENE 18:00:28 15° E 18:02:50 10° SE visible
25 Apr 6.7 07:15:49 10° SW 07:18:10 15° W 07:20:29 10° WNW visible
25 Apr 6.5 17:58:04 10° NE 18:00:58 19° E 18:03:53 10° SE visible
26 Apr 6.9 07:17:12 10° WSW 07:18:39 12° W 07:20:06 10° WNW visible
26 Apr 6.2 17:58:12 10° NE 18:01:28 24° E 18:04:47 10° SE visible
27 Apr 5.7 17:58:25 10° NNE 18:01:59 30° E 18:05:35 10° SSE visible
